TimeCDT,TemperatureF,Dew PointF,Humidity,Sea Level PressureIn,VisibilityMPH,Wind Direction,Wind SpeedMPH,Gust SpeedMPH,PrecipitationIn,Events,Conditions,WindDirDegrees,DateUTC
12:53 AM,51.1,43.0,74,29.94,10.0,NW,4.6,-,N/A,,Clear,320,2013-10-18 05:53:00
1:53 AM,50.0,43.0,77,29.96,10.0,NW,3.5,-,N/A,,Clear,310,2013-10-18 06:53:00
2:53 AM,48.9,42.1,77,29.98,10.0,NW,3.5,-,N/A,,Clear,310,2013-10-18 07:53:00
3:53 AM,46.9,41.0,80,29.98,10.0,NW,4.6,-,N/A,,Clear,310,2013-10-18 08:53:00
4:53 AM,46.0,41.0,83,29.99,10.0,WNW,3.5,-,N/A,,Clear,300,2013-10-18 09:53:00
5:53 AM,45.0,39.9,82,30.00,10.0,WNW,4.6,-,N/A,,Clear,300,2013-10-18 10:53:00
6:53 AM,43.0,39.9,89,30.03,10.0,Calm,Calm,-,N/A,,Clear,0,2013-10-18 11:53:00
7:53 AM,43.0,39.0,86,30.04,10.0,NW,5.8,-,N/A,,Clear,320,2013-10-18 12:53:00
8:53 AM,45.0,39.9,82,30.07,10.0,NW,5.8,-,N/A,,Clear,310,2013-10-18 13:53:00
9:53 AM,48.9,39.0,69,30.08,10.0,NW,6.9,-,N/A,,Clear,310,2013-10-18 14:53:00
10:53 AM,52.0,36.0,54,30.08,10.0,NW,9.2,-,N/A,,Clear,310,2013-10-18 15:53:00
11:53 AM,53.1,34.0,48,30.06,10.0,West,9.2,-,N/A,,Clear,280,2013-10-18 16:53:00
12:53 PM,55.9,34.0,44,30.04,10.0,Variable,4.6,-,N/A,,Clear,0,2013-10-18 17:53:00
1:53 PM,55.9,34.0,44,30.02,10.0,Variable,4.6,-,N/A,,Clear,0,2013-10-18 18:53:00
2:53 PM,55.0,32.0,42,30.00,10.0,West,10.4,-,N/A,,Clear,280,2013-10-18 19:53:00
3:53 PM,54.0,33.1,45,30.02,10.0,NW,6.9,-,N/A,,Mostly Cloudy,310,2013-10-18 20:53:00
4:53 PM,53.1,33.1,47,30.02,10.0,WNW,6.9,-,N/A,,Mostly Cloudy,300,2013-10-18 21:53:00
5:53 PM,51.1,33.1,50,30.03,10.0,WNW,8.1,-,N/A,,Mostly Cloudy,300,2013-10-18 22:53:00
6:53 PM,45.0,39.0,80,30.05,10.0,WNW,6.9,-,0.01,Rain,Light Rain,300,2013-10-18 23:53:00
7:53 PM,44.1,39.0,82,30.06,10.0,NNW,8.1,-,0.00,,Overcast,330,2013-10-19 00:53:00
8:14 PM,42.8,37.4,81,30.08,10.0,NNW,6.9,-,N/A,,Overcast,330,2013-10-19 01:14:00
8:48 PM,42.8,37.4,81,30.07,10.0,NW,4.6,-,N/A,,Overcast,310,2013-10-19 01:48:00
8:53 PM,42.1,37.9,85,30.05,10.0,NW,4.6,-,N/A,,Overcast,310,2013-10-19 01:53:00
9:53 PM,42.1,37.9,85,30.05,10.0,NW,6.9,-,0.01,Rain,Light Rain,310,2013-10-19 02:53:00
10:05 PM,42.8,37.4,81,30.07,10.0,NW,6.9,-,0.00,Rain,Light Rain,310,2013-10-19 03:05:00
10:53 PM,42.1,37.9,85,30.04,10.0,NW,5.8,-,0.01,Rain,Light Rain,320,2013-10-19 03:53:00
11:35 PM,42.8,39.2,87,30.06,8.0,NW,4.6,-,0.03,Rain,Light Rain,310,2013-10-19 04:35:00
11:53 PM,41.0,39.0,93,30.03,10.0,NW,5.8,-,0.04,Rain,Light Rain,310,2013-10-19 04:53:00